Tracking 18942 objects as of 18-Jan-2018
HD Live streaming from Space Station
objects crossing your sky now

FENGYUN 1C DEB

Track FENGYUN 1C DEB now!
10-day predictions


NORAD ID: 36680
Int'l Code: 1999-025DZA
Perigee: 710.3 km
Apogee: 1,001.1 km
Inclination: 98.8 °
Period: 101.9 minutes
Semi major axis: 7226 km
RCS: 0.0016 m2 (small)
Launch date: May 10, 1999
Source: People's Republic of China (PRC)
Launch site: Taiyaun Space Center, China (TSC)

Note: This is SATELLITE DEBRIS
aabbcc
Your satellite tracking list
Your tracking list is empty




NASA's NSSDC Master Catalog

Two Line Element Set (TLE):
1 36680U 99025DZA 18017.36913287 +.00000150 +00000-0 +86225-4 0  9997
2 36680 098.7645 073.1808 0201212 241.1120 178.4044 14.13166237234900
Source of the keplerian elements: AFSPC